Portada
METAR-TAF:

METAR-TAF

Aeropuertos :

Qeshm, Irán

latitud: 26-45-18N, longitud: 055-54-08E, altitud: 12 m

Observación

El informe se hizo hace 25 minutos, a las 04:00 UTC
Viento 4 kt del este
Temperatura 19°C
Humedad 88%
Presión 1014 hPa
Visibilidad: 3500 m
neblina

METAR: OIKQ 250400Z 09004KT 3500 BR NSC 19/17 Q1014 NOSIG

Hora: 07:55 (04:25 UTC)


TAF: falta

Observaciones y pronósticos meteorológicos de más de 4000 aeropuertos (mensajes METAR y TAF).

Los puntos amarillos y rojos representan las estaciones disponibles.

Ponga el ratón en el punto deseado para ver el nombre de la estación.

Haga clic para ver las observaciones y los pronósticos meteorológicos.

Para cambiar el mapa : haga clic en los botones verdes con una cruz de color negro para hacer un zoom, en el botón verde con un guión para alejar o en las flechas verdes para mapas adyacentes.


METAR-TAF: